Location: Leuk
(46.3174°N, 7.6341°E)
Time: 20:16:00
(UTC+00:00)

CZ-2C R/B - Pass Details

Date: 09 March 2021
Orbit: 667 x 785 km, 98.2° (Epoch: 20 April)

Event Time Altitude Azimuth Distance (km) Brightness Sun altitude
Rises 04:33:26 0° 2° (N) 3,120 5.8 -14.7°
Reaches altitude 10° 04:36:05 10° 349° (N) 2,176 4.8 -14.2°
Maximum altitude 04:39:49 24° 297° (WNW) 1,432 3.5 -13.6°
Enters shadow 04:41:23 20° 268° (W) 1,576 3.5 -13.3°
